Lid_Strength_Index
1 2 1 1 3 2 1 1 1 1 1 1 2 4 1 1 1 1 1 2 2 1
1 2 2 1 1 1 1 0 0 0 1 1 1 1 1 1 1 1 1 2 2 1
1 1 2 1 1 1 0 1 1 0 1 1 1 1 1 1 1 2 1 1 1 1
1 1 1 1 1 1 1 1 1 0 1 1 1 1 1 1 1 1 1 1 2 1
1 1 1 1 1 1 1 1 2 1 1 1 1 1 1 1 1 1 2 1 2 1
1 1 1 1 1 1 1 1 1 1 1 1 1 1 1 1 1 1 1 1 1 2
1 1 2 1 1 1 1 1 1 1 1 1 1 1 1 1 1 1 1 1 1 1
1 1 1 1 1 1 1 1 0 1 1 1 1 0 1 2 1 1 2 1 1 1
1 1 1 1 1 1 1 1 1 1 1 1 1 4 4 3 2 1 2 2 1 1
1 2 1 1 1 2 1 1 1 1 1 2 4 6 5 4 3 1 1 2 1 1
2 2 1 2 2 2 2 1 1 2 1 5 6 7 7 5 4 2 2 3 3 4
2 2 2 2 2 2 2 3 3 3 4 5 6 6 6 4 2 2 6 6 6 6
1 2 2 3 2 3 3 3 3 4 5 6 7 7 7 5 2 5 6 7 8 8
3 1 1 2 3 3 4 5 6 6 6 6 7 8 9 6 3 4 5 7 8 8